DW9727 Weather Reports


time (UTC)temp
C
wind
direction
speed
KPH
gust
KPH
rain 1hr
cm
rain 24hr
cm
rain mn
cm
humidity
%
barometer
mb
20260905081711 25 155 4.8 11.3 0.00 0.00 0.00 79 1009.2
20260905075711 25 151 3.2 9.7 0.00 0.00 0.00 79 1009.3
20260905074710 25 134 4.8 9.7 0.00 0.00 0.00 79 1009.4
20260905073711 25 126 4.8 4.8 0.00 0.00 0.00 79 1009.3
20260905072711 26 119 3.2 4.8 0.00 0.00 0.00 80 1009.6
20260905071710 26 136 3.2 4.8 0.00 0.00 0.00 79 1009.6
20260905065710 26 142 1.6 4.8 0.00 0.00 0.00 80 1009.8
20260905064711 26 142 1.6 8.0 0.00 0.00 0.00 80 1009.7
20260905063710 26 149 1.6 4.8 0.00 0.00 0.00 80 1009.7
20260905062711 26 149 0.0 3.2 0.00 0.00 0.00 79 1009.7
20260905061711 26 149 0.0 3.2 0.00 0.00 0.00 79 1009.9
20260905060711 27 149 1.6 3.2 0.00 0.00 0.00 79 1009.9
20260905054710 27 149 1.6 4.8 0.00 0.00 0.00 78 1010.0
20260905053711 27 169 3.2 9.7 0.00 0.00 0.00 77 1009.8
20260905052711 27 153 4.8 9.7 0.00 0.00 0.00 77 1009.8
20260905051710 27 144 4.8 11.3 0.00 0.00 0.00 76 1009.7
20260905050710 28 158 4.8 9.7 0.00 0.00 0.00 76 1009.8
20260905045710 28 135 3.2 8.0 0.00 0.00 0.00 76 1009.6
20260905044711 28 146 4.8 9.7 0.00 0.00 0.00 76 1009.4
20260905043711 28 114 3.2 8.0 0.00 0.00 0.00 76 1009.5
20260905042710 28 157 3.2 9.7 0.00 0.00 0.00 76 1009.5
20260905041711 28 148 4.8 11.3 0.00 0.00 0.00 75 1009.4
20260905040711 28 153 4.8 9.7 0.00 0.00 0.00 76 1009.4
20260905035711 28 134 3.2 8.0 0.00 0.00 0.00 76 1009.5
20260905034711 29 162 3.2 4.8 0.00 0.00 0.00 76 1009.5
20260905033711 29 141 3.2 4.8 0.00 0.00 0.00 76 1009.3
20260905032711 29 154 1.6 4.8 0.00 0.00 0.00 76 1009.3
20260905031710 29 146 3.2 9.7 0.00 0.00 0.00 76 1009.1
20260905025710 29 105 3.2 4.8 0.00 0.00 0.00 76 1009.1
20260905024710 30 74 1.6 3.2 0.00 0.00 0.00 74 1008.9
20260905023711 30 96 1.6 4.8 0.00 0.00 0.00 73 1008.9
20260905021711 30 117 0.0 4.8 0.00 0.00 0.00 71 1008.8
20260905020711 30 123 1.6 4.8 0.00 0.00 0.00 71 1008.5
20260905014710 31 63 0.0 4.8 0.00 0.00 0.00 69 1008.5
20260905013710 31 113 3.2 9.7 0.00 0.00 0.00 68 1008.4
20260905012711 31 118 4.8 9.7 0.00 0.00 0.00 67 1008.3
20260905011711 31 104 1.6 4.8 0.00 0.00 0.00 66 1008.4
20260905010711 32 172 1.6 3.2 0.00 0.00 0.00 65 1008.4
20260905005711 32 172 3.2 9.7 0.00 0.00 0.00 64 1008.5
20260905004710 32 148 3.2 4.8 0.00 0.00 0.00 62 1008.5
20260905001710 32 159 3.2 9.7 0.00 0.00 0.00 60 1008.4
20260905000711 33 132 4.8 8.0 0.00 0.00 0.00 58 1008.1
20260904235711 33 123 4.8 11.3 0.00 0.00 0.00 57 1008.0
20260904234711 33 151 8.0 16.1 0.00 0.00 0.00 57 1007.9
20260904232711 34 157 8.0 16.1 0.00 0.00 0.00 55 1007.9
20260904231711 34 178 6.4 11.3 0.00 0.00 0.00 55 1007.9
20260904230710 34 128 6.4 11.3 0.00 0.00 0.00 53 1008.1
20260904225711 33 161 8.0 14.5 0.00 0.00 0.00 55 1008.1
20260904224711 33 149 6.4 12.9 0.00 0.00 0.00 57 1008.1
20260904223710 33 160 1.6 8.0 0.00 0.00 0.00 57 1008.1
20260904222711 33 141 4.8 11.3 0.00 0.00 0.00 56 1008.1
20260904221711 33 168 8.0 14.5 0.00 0.00 0.00 55 1008.2
20260904220711 34 135 8.0 19.3 0.00 0.00 0.00 53 1008.1
20260904215711 35 165 11.3 20.9 0.00 0.00 0.00 52 1008.2
20260904214711 35 171 9.7 20.9 0.00 0.00 0.00 54 1008.1
20260904212710 35 167 9.7 19.3 0.00 0.00 0.00 53 1008.3
20260904211711 35 175 8.0 14.5 0.00 0.00 0.00 54 1008.5
20260904210711 35 119 11.3 19.3 0.00 0.00 0.00 54 1008.5
20260904205712 35 176 9.7 20.9 0.00 0.00 0.00 54 1008.4
20260904203710 34 103 9.7 19.3 0.00 0.00 0.00 56 1008.4
20260904202711 33 128 9.7 19.3 0.00 0.00 0.00 58 1008.7
20260904201711 33 161 6.4 14.5 0.00 0.00 0.00 57 1008.8
20260904200710 33 127 4.8 11.3 0.00 0.00 0.00 55 1008.6
20260904195710 33 82 3.2 12.9 0.00 0.00 0.00 55 1008.5
20260904193711 33 127 9.7 12.9 0.00 0.00 0.00 57 1008.7
20260904192710 33 168 9.7 14.5 0.00 0.00 0.00 60 1008.8
20260904191711 33 45 1.6 8.0 0.00 0.00 0.00 58 1008.9
20260904190710 33 154 3.2 9.7 0.00 0.00 0.00 58 1008.8
20260904185710 33 300 1.6 4.8 0.00 0.00 0.00 60 1009.1
20260904184710 32 151 3.2 11.3 0.00 0.00 0.00 61 1009.1
20260904183710 32 121 1.6 4.8 0.00 0.00 0.00 60 1009.1
20260904182710 32 115 1.6 4.8 0.00 0.00 0.00 64 1009.2
20260904181710 32 290 1.6 8.0 0.00 0.00 0.00 62 1009.3
20260904175710 31 219 4.8 9.7 0.00 0.00 0.00 61 1009.4
20260904174710 32 242 4.8 16.1 0.00 0.00 0.00 63 1009.5
20260904173711 31 165 8.0 19.3 0.00 0.00 0.00 65 1009.6
20260904172711 31 169 8.0 14.5 0.00 0.00 0.00 65 1009.7
20260904170710 30 213 8.0 14.5 0.00 0.00 0.00 66 1009.8
20260904165711 30 179 1.6 12.9 0.00 0.00 0.00 64 1009.5
20260904164711 30 255 6.4 11.3 0.00 0.00 0.00 65 1009.4
20260904163710 30 205 3.2 4.8 0.00 0.00 0.00 67 1009.4
20260904162710 30 215 3.2 9.7 0.00 0.00 0.00 67 1009.3
20260904161711 29 223 4.8 9.7 0.00 0.00 0.00 66 1009.4
20260904160711 29 209 3.2 8.0 0.00 0.00 0.00 69 1009.2
20260904155711 28 202 4.8 9.7 0.00 0.00 0.00 68 1009.3
20260904154711 28 253 1.6 3.2 0.00 0.00 0.00 67 1009.1
20260904153710 28 333 3.2 4.8 0.00 0.00 0.00 71 1009.3
20260904152710 28 250 0.0 4.8 0.00 0.00 0.00 71 1009.2
20260904151711 28 312 1.6 4.8 0.00 0.00 0.00 69 1009.1
20260904150710 27 199 3.2 4.8 0.00 0.00 0.00 71 1009.2
20260904144711 27 222 0.0 3.2 0.00 0.00 0.00 70 1009.3
20260904143710 27 332 3.2 4.8 0.00 0.00 0.00 73 1009.1
20260904142710 26 311 1.6 4.8 0.00 0.00 0.00 74 1009.0
20260904141710 26 298 3.2 4.8 0.00 0.00 0.00 76 1009.1
20260904140710 25 318 0.0 3.2 0.00 0.00 0.00 77 1009.1
20260904135710 25 292 0.0 0.0 0.00 0.00 0.00 78 1009.2
20260904134710 25 292 0.0 0.0 0.00 0.00 0.00 79 1009.0
20260904133710 23 292 0.0 0.0 0.00 0.00 0.00 83 1009.1
20260904130712 21 293 0.0 0.0 0.00 0.00 0.00 88 1008.8
20260904125710 21 293 0.0 0.0 0.00 0.00 0.00 89 1008.6
20260904124711 21 293 0.0 0.0 0.00 0.00 0.00 87 1008.5
20260904123712 20 293 0.0 0.0 0.00 0.00 0.00 87 1008.3
20260904120710 21 293 0.0 1.6 0.00 0.00 0.00 85 1008.0
20260904115711 21 293 0.0 0.0 0.00 0.00 0.00 85 1007.8
20260904114711 21 293 0.0 0.0 0.00 0.00 0.00 85 1007.8
20260904112710 21 283 3.2 3.2 0.00 0.00 0.00 83 1007.6
20260904111710 22 255 1.6 3.2 0.00 0.00 0.00 82 1007.6
20260904110710 22 217 0.0 0.0 0.00 0.00 0.00 81 1007.4
20260904105711 22 217 1.6 4.8 0.00 0.00 0.00 82 1007.3
20260904104711 22 209 3.2 4.8 0.00 0.00 0.00 81 1007.4
20260904103711 23 215 3.2 4.8 0.00 0.00 0.00 81 1007.3
20260904102710 23 208 3.2 4.8 0.00 0.00 0.00 80 1007.3
20260904101710 23 207 4.8 9.7 0.00 0.00 0.00 80 1007.3
20260904100710 23 217 4.8 8.0 0.00 0.00 0.00 80 1007.2
20260904095710 23 214 6.4 8.0 0.00 0.00 0.00 79 1007.0
20260904094711 23 214 4.8 8.0 0.00 0.00 0.00 79 1006.9
20260904093711 23 215 3.2 4.8 0.00 0.00 0.00 78 1006.8
20260904092711 23 223 3.2 4.8 0.00 0.00 0.00 78 1006.8
20260904091710 23 216 4.8 8.0 0.00 0.00 0.00 78 1006.8
20260904085710 24 209 3.2 4.8 0.00 0.00 0.00 76 1006.4
20260904084710 24 232 0.0 0.0 0.00 0.00 0.00 74 1006.2
20260904083710 24 232 0.0 0.0 0.00 0.00 0.00 74 1006.3
20260904082710 25 198 0.0 4.8 0.00 0.00 0.00 73 1006.1